Tracking 35275 objects as of 8-Sep-2026
HD Live streaming from Space Station
objects crossing your sky now

COSMOS 1070


COSMOS 1070 is no longer on orbit


NORAD ID: 11229
Int'l Code: 1979-001A
Launch date: January 11, 1979
Source: Commonwealth of Independent States (former USSR) (CIS)
Launch site: PLESETSK MISSILE AND SPACE COMPLEX (PKMTR)
Decay date: 1979-01-20
Your satellite tracking list
Your tracking list is empty




NASA's NSSDC Master Catalog

Two Line Element Set (TLE):
1 11229U 79001  A 79019.56101456  .00186884 +00000-0 +00000-0 0  9991
2 11229 062.8040 253.9731 0062531 087.6060 273.2204 16.11770439001281
Source of the keplerian elements: AFSPC